Temperature
-1 -0 -0 -0 -0 -1 -1 -1 -1 -0 -1 -1 -1 -1 -1 -1 -1 -1 -1 -0 -0 0 0 1 1 1 2 2 2 3 3 3 3 3 3 3 3 3 3 3 3 3 3 4
-2 -0 -1 -1 -1 -1 -1 -1 -1 -1 -1 -2 -2 -2 -2 -2 -2 -2 -2 -1 -1 -1 -0 0 0 1 1 1 1 2 2 2 3 3 3 3 3 3 3 3 3 3 3 3
-2 -1 -1 -2 -2 -2 -2 -3 -3 -3 -3 -3 -3 -3 -3 -3 -3 -3 -2 -2 -2 -2 -1 -1 -0 0 0 1 1 1 2 2 2 2 2 2 2 2 2 2 2 2 3 3
-3 -2 -3 -2 -2 -3 -3 -3 -4 -4 -4 -4 -4 -3 -3 -3 -3 -3 -3 -3 -3 -2 -2 -1 -1 -0 -0 0 0 1 1 1 1 1 1 2 2 2 2 2 2 2 2 2
-3 -3 -3 -3 -3 -4 -4 -4 -4 -5 -4 -4 -4 -4 -3 -3 -3 -4 -4 -3 -3 -3 -2 -2 -1 -1 -1 -0 -0 0 0 1 1 1 1 1 1 1 1 1 1 1 1 1
-4 -4 -3 -4 -3 -3 -4 -4 -5 -5 -5 -5 -5 -5 -4 -4 -4 -4 -4 -4 -3 -3 -3 -2 -2 -2 -1 -1 -1 -0 -0 -0 -0 -0 0 0 1 0 0 0 1 1 1 1
-5 -5 -5 -5 -4 -4 -4 -5 -5 -6 -6 -6 -6 -6 -6 -5 -5 -5 -4 -4 -4 -3 -3 -3 -2 -2 -2 -2 -1 -1 -1 -1 -1 -1 -0 -0 -0 -0 -0 -0 -0 0 0 0
-6 -6 -5 -5 -5 -6 -6 -6 -6 -6 -6 -6 -6 -6 -6 -6 -5 -5 -5 -4 -4 -4 -4 -3 -3 -3 -3 -2 -2 -2 -1 -1 -1 -1 -1 -1 -1 -1 -1 -1 -1 -1 -0 -0
-6 -6 -5 -5 -6 -6 -6 -7 -7 -7 -7 -7 -7 -7 -7 -6 -6 -6 -6 -5 -5 -5 -4 -4 -4 -4 -3 -3 -3 -2 -2 -2 -2 -2 -2 -2 -2 -2 -2 -1 -1 -1 -1 -1
-7 -6 -6 -6 -6 -6 -7 -7 -7 -7 -7 -7 -8 -7 -7 -7 -7 -6 -6 -6 -5 -5 -5 -4 -4 -4 -4 -4 -3 -3 -3 -3 -2 -2 -2 -2 -2 -2 -2 -2 -2 -2 -2 -1
-8 -7 -7 -7 -7 -7 -7 -7 -7 -7 -8 -8 -8 -8 -8 -7 -7 -7 -6 -6 -6 -6 -5 -5 -4 -4 -4 -4 -4 -4 -3 -3 -3 -3 -3 -3 -3 -3 -3 -2 -2 -2 -2 -2
-8 -7 -8 -7 -7 -8 -8 -8 -8 -8 -8 -8 -8 -8 -8 -8 -8 -7 -7 -7 -6 -6 -6 -5 -5 -5 -4 -4 -4 -4 -4 -4 -4 -3 -3 -3 -3 -3 -3 -3 -3 -3 -2 -2
-7 -8 -8 -8 -8 -8 -8 -8 -9 -9 -9 -9 -9 -9 -9 -8 -8 -8 -7 -7 -7 -6 -6 -6 -5 -5 -5 -5 -5 -5 -4 -4 -4 -4 -4 -4 -4 -4 -4 -3 -3 -3 -3 -3
-8 -8 -8 -8 -9 -9 -9 -9 -9 -9 -9 -9 -9 -9 -9 -9 -8 -8 -8 -7 -7 -7 -6 -6 -6 -6 -5 -5 -5 -5 -5 -5 -5 -4 -4 -4 -4 -4 -4 -4 -4 -3 -3 -3
-8 -8 -9 -9 -9 -9 -9 -9 -9 -9 -9 -9 -9 -9 -9 -9 -9 -9 -8 -8 -8 -7 -7 -7 -6 -6 -6 -6 -6 -5 -5 -5 -5 -5 -5 -5 -5 -5 -4 -4 -4 -4 -4 -4
-9 -8 -9 -9 -9 -9 -9 -9 -10 -10 -10 -10 -9 -9 -9 -9 -9 -9 -9 -8 -8 -8 -7 -7 -7 -7 -7 -7 -6 -6 -6 -6 -6 -6 -5 -5 -5 -5 -5 -5 -5 -5 -5 -5
-9 -9 -9 -9 -10 -10 -10 -10 -10 -10 -10 -10 -10 -10 -10 -9 -9 -9 -9 -8 -8 -8 -8 -8 -8 -8 -7 -7 -7 -7 -6 -6 -6 -6 -6 -6 -6 -6 -6 -6 -6 -6 -6 -6
-9 -9 -10 -10 -10 -10 -10 -10 -10 -10 -10 -10 -10 -10 -10 -10 -10 -9 -9 -9 -9 -8 -8 -8 -8 -8 -8 -8 -7 -7 -7 -7 -7 -7 -7 -6 -6 -6 -6 -6 -6 -6 -6 -6
-9 -9 -10 -10 -10 -10 -10 -10 -10 -10 -10 -10 -10 -10 -10 -10 -10 -10 -10 -9 -9 -9 -9 -9 -9 -9 -8 -8 -8 -8 -8 -8 -7 -7 -7 -7 -7 -7 -7 -7 -7 -7 -7 -7
-9 -10 -10 -10 -10 -10 -10 -10 -10 -11 -11 -11 -11 -11 -10 -10 -10 -10 -10 -10 -10 -10 -9 -9 -9 -9 -9 -9 -8 -8 -8 -8 -8 -8 -8 -8 -7 -7 -7 -8 -8 -7 -7 -7
-9 -10 -10 -10 -10 -10 -11 -11 -11 -11 -11 -11 -11 -11 -11 -11 -11 -11 -10 -10 -10 -10 -10 -10 -10 -9 -9 -9 -9 -9 -9 -9 -8 -8 -8 -8 -8 -8 -8 -8 -8 -8 -8 -8
-10 -10 -10 -10 -11 -10 -11 -11 -11 -11 -11 -11 -11 -11 -11 -11 -11 -11 -11 -11 -11 -10 -10 -10 -10 -10 -10 -10 -9 -9 -9 -9 -9 -9 -9 -9 -9 -9 -9 -8 -8 -8 -8 -8
-10 -10 -11 -11 -11 -11 -11 -11 -11 -11 -11 -11 -11 -11 -11 -11 -11 -11 -11 -11 -11 -11 -11 -11 -11 -10 -10 -10 -10 -10 -10 -9 -9 -9 -9 -9 -9 -9 -9 -9 -9 -9 -9 -9
-11 -11 -11 -11 -11 -11 -11 -11 -12 -12 -12 -12 -12 -12 -12 -12 -12 -12 -12 -12 -12 -11 -11 -11 -11 -11 -11 -10 -10 -10 -10 -10 -10 -10 -10 -10 -10 -10 -9 -9 -9 -9 -9 -9
-11 -11 -11 -11 -12 -12 -12 -12 -12 -12 -12 -12 -12 -12 -12 -12 -12 -12 -12 -12 -12 -12 -12 -12 -11 -11 -11 -11 -11 -11 -11 -11 -11 -10 -10 -10 -10 -10 -10 -10 -10 -10 -9 -9
-11 -12 -12 -12 -12 -12 -12 -13 -13 -13 -13 -13 -13 -13 -13 -13 -13 -13 -12 -12 -12 -12 -12 -12 -12 -12 -11 -11 -11 -11 -11 -11 -11 -11 -11 -11 -11 -10 -10 -10 -10 -10 -10 -10
-12 -12 -12 -12 -12 -13 -13 -13 -13 -13 -13 -13 -13 -13 -13 -13 -13 -13 -13 -13 -12 -12 -12 -12 -12 -12 -12 -12 -12 -12 -12 -11 -11 -11 -11 -11 -11 -11 -11 -11 -10 -10 -10 -10
Wind_Speed
6 7 4 6 7 5 3 5 6 8 7 9 10 10 10 10 9 9 9 9 8 8 8 7 5 4 3 3 3 2 1 1 2 3 2 2 2 2 1 2 2 2 2 2
5 5 4 5 7 6 6 5 6 7 8 8 10 9 9 10 10 10 10 10 10 9 8 8 7 5 4 4 3 2 2 2 2 2 2 2 2 1 1 1 2 2 2 3
5 5 4 4 4 4 3 3 3 5 7 11 11 11 11 10 10 10 10 11 10 9 8 7 7 6 5 4 4 2 2 2 2 2 2 3 2 1 1 1 1 2 2 2
4 4 3 2 2 3 3 3 5 5 8 10 11 11 8 7 8 10 12 12 10 9 8 7 7 6 5 4 3 2 2 3 3 3 3 3 2 2 2 1 2 2 2 2
1 3 4 2 5 5 4 4 6 8 11 12 12 9 6 9 11 10 11 11 9 8 8 7 6 6 5 4 4 3 3 4 4 3 3 3 3 2 2 1 2 2 2 2
1 2 4 3 7 7 2 2 8 10 12 13 12 8 8 13 15 13 12 10 9 9 8 6 6 5 5 5 4 4 5 4 4 4 4 4 3 2 2 2 2 1 1 2
2 4 4 4 9 6 2 5 10 11 11 11 8 7 11 15 14 12 11 11 10 9 8 7 6 5 5 5 5 6 5 4 4 4 3 3 2 2 1 1 1 1 1 1
1 2 4 6 5 3 4 7 9 10 10 11 11 12 13 13 13 12 12 11 10 9 9 8 6 5 6 6 6 5 4 4 4 3 3 2 1 1 1 1 1 1 1 1
3 4 3 2 2 3 5 7 8 9 11 11 12 13 14 13 12 11 11 11 10 9 9 8 6 5 6 7 6 5 4 4 4 3 3 1 1 1 1 1 1 1 1 1
3 4 4 4 3 4 6 8 9 10 10 11 12 13 13 13 12 11 11 10 9 9 9 9 7 6 6 6 5 4 4 4 3 3 3 2 1 1 1 1 1 1 1 1
4 5 6 3 4 7 9 10 11 11 10 11 11 13 12 12 12 11 11 10 8 8 9 9 8 7 7 6 5 4 4 4 3 3 2 2 2 1 1 1 2 2 2 2
5 4 5 8 8 8 9 11 11 11 12 11 10 12 12 12 11 10 10 9 9 9 9 9 8 8 7 6 4 3 4 4 3 2 2 1 1 2 3 1 1 0 1 1
5 6 7 8 8 7 8 10 11 11 11 12 11 10 11 11 11 10 10 9 9 9 9 8 8 8 7 6 5 4 3 3 2 2 1 1 1 0 1 3 5 4 3 3
4 4 5 5 7 8 9 10 10 10 9 10 11 11 10 10 10 10 10 10 9 8 8 8 8 7 7 6 5 4 4 3 3 1 1 1 1 0 0 1 2 3 5 6
4 4 6 7 7 8 8 9 10 10 11 11 10 10 11 11 11 10 10 9 8 8 8 8 8 8 7 6 5 4 3 3 2 1 1 1 1 1 2 2 2 3 3 4
7 6 5 6 8 9 9 9 10 11 11 12 11 11 11 10 10 9 9 8 8 8 8 8 8 7 7 6 6 4 3 4 3 2 1 2 2 2 2 2 2 2 2 2
4 6 7 8 9 10 9 9 9 10 11 11 12 12 11 10 10 9 9 8 7 7 8 8 8 7 7 6 5 3 3 3 4 2 2 2 2 2 2 2 2 2 2 3
4 5 6 7 8 9 10 10 9 10 10 11 11 10 10 10 10 10 9 8 7 7 8 8 8 7 6 6 5 3 2 2 2 2 2 2 2 2 2 2 2 3 3 3
4 5 6 7 7 7 8 9 9 9 9 9 10 10 9 8 9 9 8 7 7 8 8 8 10 8 7 7 6 3 2 2 2 2 2 2 3 2 2 2 2 2 2 3
5 5 6 7 7 6 8 8 8 9 9 8 9 9 9 9 8 8 7 6 5 6 7 8 7 6 6 6 6 3 2 2 2 2 2 2 2 2 2 2 2 2 2 2
6 6 7 7 8 8 7 8 8 9 9 8 8 9 9 9 8 7 6 6 6 7 7 8 6 5 5 5 6 3 2 2 2 1 1 1 1 1 1 2 2 2 2 2
5 6 6 7 7 8 7 7 7 8 8 8 8 8 8 8 8 7 5 5 6 10 7 5 5 7 8 7 3 3 2 2 2 1 1 1 1 1 1 1 1 1 1 1
5 5 6 6 7 7 8 7 7 7 8 8 8 8 8 7 6 6 6 6 6 9 7 5 8 10 10 6 4 3 3 3 2 2 1 1 1 1 1 1 1 1 1 1
4 5 5 5 5 6 7 7 7 6 7 7 7 7 6 6 5 4 4 8 10 10 6 7 10 10 9 4 4 3 3 3 2 2 2 1 1 1 1 1 1 1 1 1
4 4 4 5 5 5 6 7 7 7 6 6 7 7 5 4 4 6 5 6 9 9 5 7 10 10 6 3 3 3 3 2 2 2 1 1 1 1 1 1 1 1 1 1
4 4 4 4 4 5 5 5 5 6 6 6 6 6 5 5 5 5 5 5 7 8 6 5 5 6 4 4 3 3 3 3 3 3 2 2 2 2 1 1 2 1 1 2
4 3 4 4 4 4 4 5 5 6 6 6 7 6 6 6 5 5 6 5 5 5 5 5 4 4 4 4 4 3 3 3 3 2 2 2 2 2 2 2 2 2 2 2
Wind_Direction
263 282 287 294 305 309 271 259 259 281 289 310 322 324 321 327 334 340 341 342 339 337 336 337 335 334 330 325 327 320 310 289 277 282 277 270 277 279 269 248 238 225 226 230
282 274 278 296 314 304 289 290 283 293 293 311 323 331 335 339 344 341 339 337 336 335 336 336 333 327 325 319 318 313 288 283 286 286 282 263 258 271 274 263 246 224 226 227
279 306 315 301 329 321 319 326 309 296 307 329 336 337 335 336 338 335 333 333 330 326 326 326 326 322 315 311 316 324 306 298 290 283 280 274 264 252 245 243 234 234 234 226
287 335 268 262 1 344 324 348 355 334 331 334 326 318 316 332 338 334 331 329 327 327 326 325 326 325 320 318 314 315 313 302 296 283 279 280 268 256 254 238 226 232 241 240
269 278 276 315 346 341 313 313 360 343 334 335 333 325 320 348 343 328 323 322 322 322 324 324 326 326 327 322 318 315 308 301 295 287 279 270 261 251 253 239 243 250 247 239
228 260 273 300 324 322 284 301 358 350 339 340 346 344 323 337 336 328 328 330 329 331 334 331 327 331 330 321 316 306 301 298 296 288 275 263 255 251 256 241 242 244 260 255
238 248 270 322 326 347 40 315 332 334 331 331 327 301 302 317 322 326 329 331 334 335 336 331 331 335 331 320 307 304 306 304 302 292 277 262 260 257 238 231 223 238 259 283
238 251 272 342 7 28 304 311 321 325 326 322 316 312 314 318 322 327 329 331 334 335 333 333 337 337 328 318 314 317 317 312 308 303 292 277 254 272 243 196 188 212 235 295
218 237 276 325 314 307 319 319 321 323 321 321 317 316 319 322 323 324 325 327 330 330 330 332 334 336 326 323 329 332 332 326 324 320 317 306 252 246 258 218 197 222 216 237
276 275 298 309 313 324 322 314 313 313 313 316 313 314 317 320 322 323 325 324 326 329 329 330 331 331 325 326 332 338 333 330 328 328 329 333 303 241 216 213 208 215 222 227
274 292 313 303 317 319 319 319 320 320 318 316 316 315 315 317 318 319 319 321 324 324 324 326 327 326 329 330 334 339 332 328 331 333 330 338 339 312 252 231 214 209 214 204
258 275 284 290 303 316 317 318 320 320 321 322 318 314 315 314 314 315 317 319 322 323 324 326 327 325 331 334 333 335 333 333 333 331 331 342 359 4 14 18 35 90 155 159
260 286 278 283 300 313 311 314 317 317 315 317 318 315 314 314 316 319 320 320 317 317 318 324 327 328 333 333 330 329 326 322 318 319 322 328 340 23 21 31 44 59 80 91
281 297 295 302 307 315 314 314 314 315 316 316 317 319 318 317 318 322 321 319 317 317 320 324 326 327 331 333 334 335 332 331 329 315 316 325 337 343 87 91 64 49 52 64
304 298 283 295 307 315 319 323 327 328 327 327 325 323 323 321 320 318 318 321 324 327 329 332 331 331 336 338 340 339 337 340 341 342 3 19 39 59 67 69 76 67 55 49
306 306 304 310 315 320 325 328 327 324 324 323 325 325 322 318 316 318 323 330 332 330 330 332 332 332 338 340 342 344 346 350 355 7 33 47 57 66 69 66 64 67 58 44
311 313 317 317 318 318 319 317 315 315 317 318 319 320 321 322 324 325 326 329 327 324 329 332 331 334 340 341 342 343 348 354 6 22 37 48 58 63 66 69 67 63 52 44
269 280 289 294 301 308 313 316 316 316 316 315 319 323 326 328 326 323 323 327 333 336 337 336 336 341 346 347 348 353 358 6 20 31 37 43 47 53 61 62 60 61 48 40
293 293 297 301 301 302 306 310 313 315 315 320 325 325 323 322 321 322 325 333 339 336 335 337 342 349 349 349 352 1 11 20 25 28 34 41 48 51 55 55 52 49 48 46
301 305 308 310 311 309 309 310 313 316 319 323 325 326 327 325 325 326 329 329 326 323 326 337 344 346 346 346 352 6 20 28 33 33 40 49 52 52 51 49 47 44 44 44
303 308 312 313 313 313 312 314 316 317 320 324 325 323 323 323 327 330 333 330 332 337 339 345 350 346 346 347 353 18 26 25 32 42 45 49 48 47 48 43 37 33 34 35
301 306 309 312 315 316 318 319 318 318 322 324 325 326 327 329 332 331 328 324 331 340 346 346 346 347 351 355 11 16 19 25 24 25 36 38 38 32 32 35 30 20 23 30
300 303 307 310 312 312 316 321 322 323 323 324 326 326 325 323 326 330 330 334 337 339 345 343 345 349 354 8 14 19 18 15 12 11 13 16 8 4 18 24 19 12 10 11
303 306 308 311 316 319 323 325 326 325 323 322 326 328 328 329 331 329 320 328 339 339 342 341 347 351 0 12 10 11 8 6 3 1 4 7 2 359 1 -0 358 350 345 343
305 305 310 320 322 318 317 321 324 325 327 330 332 335 334 329 322 324 329 332 339 343 344 343 347 351 1 1 2 359 356 354 350 355 358 356 349 347 341 332 323 318 317 312
307 307 305 304 305 310 316 321 323 326 328 330 332 333 333 333 329 329 332 336 338 341 344 341 343 346 349 348 348 345 343 340 345 351 350 340 335 338 335 331 321 313 305 298
316 317 319 320 322 322 320 320 320 322 324 325 324 327 331 334 336 337 337 338 339 341 341 341 343 344 343 343 343 342 340 339 338 336 333 326 319 313 309 304 300 298 293 288
Height
1507 1504 1503 1502 1500 1499 1499 1497 1496 1490 1487 1485 1483 1480 1476 1472 1468 1465 1462 1459 1456 1454 1452 1450 1450 1449 1449 1449 1449 1449 1450 1451 1451 1452 1452 1452 1452 1453 1453 1454 1455 1456 1457 1458
1508 1502 1501 1500 1499 1498 1497 1496 1494 1491 1488 1486 1483 1480 1476 1472 1468 1465 1462 1459 1456 1454 1451 1449 1448 1447 1447 1447 1447 1447 1447 1448 1448 1448 1448 1448 1449 1449 1450 1450 1451 1452 1453 1454
1507 1503 1500 1502 1502 1500 1499 1497 1495 1494 1492 1486 1482 1478 1476 1473 1469 1466 1463 1459 1456 1453 1451 1449 1447 1446 1445 1445 1444 1444 1444 1444 1445 1444 1444 1445 1445 1445 1446 1447 1447 1448 1449 1449
1510 1507 1511 1506 1501 1500 1499 1498 1497 1495 1492 1488 1484 1479 1475 1472 1469 1465 1462 1459 1455 1452 1450 1448 1446 1445 1444 1443 1442 1442 1441 1441 1441 1441 1441 1441 1442 1442 1442 1443 1443 1444 1445 1445
1513 1512 1506 1504 1502 1501 1500 1498 1497 1495 1491 1487 1482 1476 1472 1470 1468 1465 1461 1458 1454 1451 1449 1446 1444 1443 1441 1440 1440 1439 1438 1438 1438 1438 1438 1438 1438 1438 1439 1439 1439 1440 1441 1441
1516 1514 1508 1508 1503 1499 1500 1499 1498 1495 1492 1488 1483 1480 1475 1470 1467 1463 1459 1456 1453 1450 1447 1444 1442 1441 1439 1438 1437 1436 1436 1435 1435 1435 1435 1435 1435 1435 1435 1435 1436 1436 1437 1438
1518 1516 1510 1509 1504 1500 1505 1504 1500 1497 1493 1490 1486 1484 1478 1471 1467 1463 1458 1455 1451 1448 1445 1443 1441 1439 1437 1436 1434 1434 1433 1433 1432 1432 1432 1431 1431 1431 1431 1432 1432 1433 1433 1434
1519 1518 1515 1508 1505 1508 1508 1504 1500 1496 1493 1489 1484 1479 1474 1469 1465 1460 1456 1452 1449 1446 1444 1441 1439 1437 1435 1433 1432 1431 1430 1430 1429 1429 1429 1428 1428 1428 1428 1429 1429 1429 1430 1430
1518 1516 1511 1508 1508 1507 1505 1502 1498 1495 1491 1487 1481 1476 1471 1467 1462 1458 1455 1451 1448 1445 1442 1440 1437 1435 1433 1432 1430 1428 1427 1426 1426 1426 1426 1425 1425 1425 1425 1426 1426 1426 1427 1427
1515 1511 1509 1508 1506 1505 1503 1500 1496 1493 1489 1484 1479 1474 1469 1464 1460 1456 1452 1449 1446 1443 1440 1437 1436 1434 1432 1430 1428 1426 1425 1424 1424 1423 1423 1423 1423 1423 1423 1424 1424 1424 1425 1425
1514 1511 1508 1506 1505 1503 1500 1496 1493 1489 1485 1481 1477 1471 1467 1462 1458 1454 1450 1447 1444 1441 1438 1436 1434 1432 1431 1429 1427 1425 1423 1422 1421 1421 1421 1421 1421 1421 1422 1422 1423 1423 1423 1424
1514 1510 1509 1505 1502 1500 1497 1493 1489 1485 1481 1477 1474 1469 1464 1460 1456 1452 1448 1445 1442 1439 1436 1434 1432 1430 1429 1427 1425 1423 1421 1420 1420 1420 1420 1420 1420 1420 1420 1421 1421 1421 1422 1422
1510 1508 1506 1502 1500 1497 1494 1490 1487 1483 1479 1474 1470 1466 1462 1457 1453 1450 1446 1443 1440 1437 1434 1432 1430 1428 1426 1425 1423 1422 1420 1419 1418 1418 1418 1418 1418 1418 1418 1419 1419 1420 1420 1421
1507 1505 1502 1499 1497 1494 1491 1487 1483 1479 1475 1471 1467 1463 1459 1455 1451 1447 1444 1441 1438 1435 1432 1430 1428 1426 1424 1423 1422 1420 1419 1418 1417 1416 1416 1416 1417 1417 1417 1417 1417 1418 1419 1420
1504 1503 1501 1497 1494 1491 1488 1484 1480 1476 1472 1467 1464 1460 1456 1452 1448 1445 1442 1439 1436 1433 1430 1428 1426 1424 1423 1421 1419 1418 1417 1416 1415 1415 1415 1415 1415 1415 1416 1416 1416 1417 1417 1418
1501 1499 1497 1495 1491 1488 1485 1481 1477 1473 1469 1465 1461 1457 1453 1450 1446 1442 1439 1437 1433 1430 1428 1426 1424 1422 1421 1419 1418 1416 1416 1415 1415 1414 1414 1414 1414 1415 1415 1415 1416 1416 1416 1417
1499 1496 1494 1491 1488 1485 1482 1479 1475 1471 1467 1463 1459 1455 1451 1447 1444 1440 1437 1435 1432 1430 1427 1425 1423 1421 1419 1418 1416 1415 1414 1414 1414 1414 1414 1414 1414 1414 1414 1415 1415 1416 1416 1417
1497 1495 1493 1490 1487 1483 1480 1476 1473 1469 1465 1461 1457 1453 1449 1445 1441 1438 1436 1433 1431 1428 1426 1424 1422 1420 1418 1417 1415 1414 1414 1414 1413 1413 1414 1414 1414 1414 1414 1414 1415 1415 1416 1416
1494 1492 1490 1487 1485 1481 1478 1474 1470 1466 1463 1459 1454 1450 1447 1443 1440 1437 1434 1432 1429 1426 1425 1423 1421 1420 1418 1416 1416 1415 1414 1413 1413 1413 1413 1414 1414 1414 1414 1414 1415 1415 1415 1416
1492 1490 1487 1484 1482 1479 1475 1472 1468 1464 1460 1457 1453 1449 1445 1442 1439 1436 1433 1431 1429 1427 1425 1423 1421 1419 1418 1417 1416 1415 1414 1414 1413 1413 1413 1413 1413 1413 1414 1414 1415 1415 1415 1415
1489 1487 1484 1481 1479 1476 1473 1469 1466 1462 1458 1455 1451 1447 1444 1441 1438 1435 1432 1430 1428 1427 1424 1422 1421 1419 1418 1417 1416 1415 1414 1414 1413 1413 1413 1413 1413 1413 1413 1414 1414 1414 1415 1415
1486 1484 1481 1479 1476 1473 1470 1467 1464 1460 1456 1453 1449 1446 1443 1440 1437 1434 1432 1430 1428 1426 1424 1422 1420 1419 1418 1417 1416 1415 1414 1413 1413 1413 1413 1413 1413 1413 1413 1413 1414 1414 1414 1415
1484 1482 1479 1476 1474 1471 1468 1465 1462 1458 1455 1451 1448 1445 1442 1439 1436 1433 1431 1429 1427 1425 1424 1422 1421 1419 1418 1416 1415 1414 1414 1413 1413 1412 1412 1412 1412 1413 1413 1413 1413 1413 1414 1414
1481 1479 1477 1474 1471 1468 1465 1463 1460 1457 1453 1450 1447 1444 1441 1438 1435 1433 1431 1429 1427 1425 1423 1422 1420 1419 1418 1416 1415 1414 1413 1413 1412 1412 1412 1412 1412 1412 1412 1412 1412 1412 1412 1413
1479 1477 1474 1472 1469 1466 1464 1461 1458 1455 1452 1449 1446 1443 1440 1438 1435 1433 1430 1428 1426 1424 1423 1421 1420 1419 1417 1416 1415 1414 1413 1413 1412 1412 1411 1411 1411 1411 1411 1411 1411 1411 1411 1411
1476 1474 1472 1470 1467 1465 1462 1459 1456 1453 1450 1447 1445 1442 1440 1437 1435 1432 1430 1428 1426 1424 1422 1421 1419 1418 1416 1415 1414 1413 1412 1412 1411 1411 1411 1410 1410 1410 1410 1409 1409 1409 1409 1409
1474 1472 1470 1468 1466 1463 1460 1458 1455 1452 1449 1446 1444 1441 1439 1436 1434 1431 1429 1427 1425 1423 1421 1420 1418 1417 1415 1414 1413 1412 1412 1411 1410 1410 1409 1409 1408 1408 1408 1407 1407 1407 1407 1407